GAOFEN-9 01

Last updated on Wed Jul 09 2025 00:02:29 GMT+0000 (Coordinated Universal Time)

1 40894U 15047A 25189.56428999 .00000754 00000+0 10106-3 0 9995 2 40894 97.6757 235.1235 0027796 183.3727 176.7304 14.81915387529282
UTC large
Height (km)
Speed (km/s)
/
Latitude / Longitude
Inclination (degrees)
Orbital Period (minutes)
Azimuth
Elevation
Range (km)
Doppler Factor

Next 0 passes for location: London (51.5072 / 0.1276)

Sorry there are no passes over London.